Hourly Data Report for February 13, 2002

SHERBROOKE A
QUEBEC

45°26'00.000" N
71°41'00.000" W
241.40 m
7028124
71610
YSC

Download Data

Hourly Data (February 2002)
Hourly Data Report for February 13, 2002
TIME
LST
Temp Definition
°C
Dew Point Definition
°C
Rel Hum Definition
%
Precip. Amount Definition
mm

Wind Dir Definition
10's deg

Wind Spd Definition
km/h
Visibility Definition
km
Stn Press Definition
kPa
Hmdx Definition


Wind Chill Definition


Weather Definition


00:00 -1.3 -3.9 82   23 20 1.3 97.06   -7 Snow
01:00 -2.0 -7.4 66   25 32 5.6 97.21   -9  
02:00 -2.4 -8.1 65   25 30 9.7 97.30   -10 Snow
03:00 -6.0 -9.2 78   30 20 0.8 97.49   -13 Snow
04:00 -7.1 -10.5 77   28 30 1.6 97.61   -16 Snow
05:00 -9.1 -14.3 66   29 28 8.0 97.75   -18 Snow
06:00 -11.1 -16.7 63   27 32 15.0 97.92   -21  
07:00 -13.3 -18.0 68   29 28 8.0 98.15   -24  
08:00 -14.6 -18.9 70   31 17 12.9 98.38   -23 Snow Showers
09:00 -15.7 -21.2 63   29 24 12.9 98.50   -26 Mostly Cloudy
10:00 -15.8 -21.9 59   28 22 24.1 98.62   -26 Mainly Clear
11:00 -15.8 -22.2 58   29 28 24.1 98.72   -27 Mainly Clear
12:00 -14.6 -20.9 59   27 30 24.1 98.74   -26 Mainly Clear
13:00 -14.3 -20.8 58   27 28 24.1 98.82   -25 Mainly Clear
14:00 -13.9 -20.8 56   27 26 24.1 98.88   -24 Mainly Clear
15:00 -14.8 -21.6 56   27 30 24.1 98.97   -26 Mainly Clear
16:00 -14.8 -22.1 54   27 20 24.1 99.03   -24 Mainly Clear
17:00 -15.3 -22.9 52   27 24 24.1 99.11   -25 Mainly Clear
18:00 -16.3 -23.1 56   25 13 15.0 99.23   -24  
19:00 -16.7 -23.5 56   24 9 15.0 99.31   -23  
20:00 -17.3 -24.0 56   23 9 15.0 99.35   -24  
21:00 -17.7 -24.1 57   23 7 15.0 99.41   -23  
22:00 -21.2 -26.3 63   20 6 15.0 99.41   -26  
23:00 -23.5 -27.8 68     0 15.0 99.40      

Notes on Data Quality.

Legend

  • E = Estimated
  • M = Missing
  • NA = Not Available*
  • [empty] = Indicates an unobserved value
Date modified: